Regional Weather Roundup
Issued by NWS Jackson, KY

Home | Current Version | Previous Version | Text Only | Print | Product List | Glossary Off
Versions: 1 2 3 4 5 6 7 8 9 10 11 12 13 14 15 16 17 18 19 20 21 22 23 24 25 26 27 28

000
ASUS43 KJKL 221210
RWRJKL

EAST KENTUCKY HOURLY WEATHER ROUNDUP
NATIONAL WEATHER SERVICE JACKSON KY
800 AM EDT TUE MAY 22 2018

NOTE: "FAIR" INDICATES FEW OR NO CLOUDS BELOW 12,000 FEET WITH
NO SIGNIFICANT WEATHER AND/OR OBSTRUCTIONS TO VISIBILITY.

* THESE REPORTS ARE NOT UNDER NWS QUALITY CONTROL AND MAY NOT
  REPORT WEATHER SUCH AS PRECIPITATION AND FOG.

KYZ079-080-083-085-087-088-110-112-115-119-120-221300
...EASTERN KENTUCKY...

CITY           SKY/WX    TMP DP  RH WIND       PRES   REMARKS
JACKSON          N/A     70  65  84 CALM      30.12R
6HR MIN TEMP:  65; 6HR MAX TEMP:  70;

LONDON         PTSUNNY   67  66  97 CALM      30.12R
6HR MIN TEMP:  63; 6HR MAX TEMP:  67;

SOMERSET*      CLOUDY    66  64  94 MISG      30.12R
MONTICELLO*    CLOUDY    70  65  84 VRB7      30.12R
6HR MIN TEMP:  60; 6HR MAX TEMP:  70;

WILLIAMSBURG*    N/A     64  64 100 CALM      30.13R
MIDDLESBORO*   CLOUDY    65  65 100 CALM      30.14S
6HR MIN TEMP:  64; 6HR MAX TEMP:  65;

HARLAN APT*    CLOUDY    64  64  99 CALM      30.16R VSB 1/2
PIKE CO APT*     N/A     67  67 100 SE3       30.13R
BIG SANDY APT*   N/A     68  68  99 CALM      30.12R
6HR MIN TEMP:  63; 6HR MAX TEMP:  69;

MOREHEAD APT*  PTSUNNY   68  66  94 CALM      30.11R
ASHLAND*       CLOUDY    68  66  93 CALM      30.09R
$$

KYZ035-036-041-042-044-050-067-078-099-221300
...CENTRAL KENTUCKY...

CITY           SKY/WX    TMP DP  RH WIND       PRES   REMARKS
MT STERLING*   PTSUNNY   68  66  94 S5        30.10S
FLEMING/MASON* CLOUDY    67  67 100 CALM      30.09R
DANVILLE*        N/A     68  64  88 CALM      30.11R
LEXINGTON      CLOUDY    70  66  87 S9        30.08R
6HR MIN TEMP:  67; 6HR MAX TEMP:  70; 6HR PCP: TRACE;

FRANKFORT      CLOUDY    70  65  84 S5        30.06R
6HR MIN TEMP:  67; 6HR MAX TEMP:  70;

LOUISVILLE     LGT RAIN  72  68  87 S6        30.04R
6HR MIN TEMP:  70; 6HR MAX TEMP:  72; 6HR PCP:  0.01;

LEBANON*         N/A     68  66  94 S6        30.08R
GLASGOW*         N/A     69  62  77 CALM      30.08R
BOWLING GREEN    N/A     70  65  84 S5        30.07R
6HR MIN TEMP:  68; 6HR MAX TEMP:  71;

$$

KYZ091>093-OHZ055-061-077-WVZ005-015-034-035-042-221300
...SOUTHERN OHIO/WEST VIRGINIA...

CITY           SKY/WX    TMP DP  RH WIND       PRES   REMARKS
COVINGTON      CLOUDY    68  66  93 S8        30.05R
COLUMBUS       CLOUDY    68  65  90 SW8       30.04R
DAYTON         CLOUDY    67  67 100 SW8       30.06R
WILMINGTON     CLOUDY    67  67 100 SW10      30.06R
HUNTINGTON     PTSUNNY   67  65  93 SE3       30.08R
CHARLESTON     PTSUNNY   67  67 100 S3        30.10R
PINEVILLE*     CLOUDY    65  64  97 MISG      30.19S FOG
BECKLEY          N/A     66  62  87 SW5       30.16S
LOGAN CO APT*    N/A     66  66 100 CALM      30.12S
$$

VAZ002-007-008-TNZ017-027-036-066-071-221300
...SOUTHWEST VIRGINIA/EAST TENNESSEE...

CITY           SKY/WX    TMP DP  RH WIND       PRES   REMARKS
WISE*          CLOUDY    66  66 100 SW3       30.21R
JONESVILLE*      N/A     64  64 100 CALM      30.17R
ABINGDON*      CLOUDY    68  66  93 E5        30.18R
BRISTOL        PTSUNNY   64  64 100 CALM      30.15R
MORRISTOWN*    CLOUDY    68  68 100 CALM      30.14R
SEVIERVILLE*   CLOUDY    68  66  94 CALM      30.12S
KNOXVILLE      CLOUDY    70  67  90 CALM      30.11R
LAFOLLETTE*    PTSUNNY   66  66 100 CALM      30.16R
OAK RIDGE      CLOUDY    70  67  90 CALM      30.13R
CROSSVILLE     CLOUDY    67  63  87 S3        30.15R
NASHVILLE        N/A     69  64  84 S5        30.08R
$$

...KEY TO REMARKS...
VSB - VISIBILITY IN MILES
WCI - WIND CHILL INDEX
HX  - HEAT INDEX

$$




USA.gov is the U.S. government's official web portal to all federal, state and local government web resources and services.